Terminal Aerodrome Forecast
Issued by NWS Sterling, VA

Current Version | Previous Version | Graphics & Text | Print | Product List | Glossary On
Versions: 1 2 3 4 5 6 7 8 9 10 11 12 13 14 15 16 17 18 19 20 21 22 23 24 25
708
FTUS41 KLWX 281731
TAFIAD
TAF
KIAD 281731Z 2818/2924 VRB03KT P6SM VCTS BKN040CB
     FM282000 20005KT P6SM +TSRA BKN040CB
     FM290300 11004KT 3SM TSRA OVC060CB
     FM290600 VRB03KT 3SM SHRA OVC050
     FM290900 27004KT P6SM SHRA OVC040
     FM291500 32010KT P6SM BKN040
     FM292300 34006KT P6SM BKN050=

USA.gov is the U.S. government's official web portal to all federal, state and local government web resources and services.